• In Romania
  • List of Countries
  • For 7 days
  • Water Temperature
  • Satellite Maps
  • Weather Map
  • Weather Widgets
  • user-avatar
    Login

    Hourly Weather Ertil

    Today, 20 May, Sunday

    Time Temperature Precipitation Wind Pressure Humidity
    00:00 +14°C° 0 mm 2 mps 744 mmHg 91%
    01:00 +14°C° 0 mm 2 mps 744 mmHg 91%
    02:00 +14°C° 0 mm 2 mps 745 mmHg 92%
    03:00 +13°C° 0 mm 2 mps 744 mmHg 92%
    04:00 +14°C° 0 mm 1 mps 745 mmHg 91%
    05:00 +14°C° 0 mm 1 mps 745 mmHg 90%
    06:00 +15°C° 0 mm 1 mps 745 mmHg 89%
    07:00 +18°C° 0 mm 1 mps 746 mmHg 83%
    08:00 +19°C° 0 mm 1 mps 746 mmHg 78%
    09:00 +19°C° 0 mm 0 mps 746 mmHg 73%
    10:00 +22°C° 0.2 mm 1 mps 746 mmHg 68%
    11:00 +23°C° 0.2 mm 1 mps 746 mmHg 64%
    12:00 +24°C° 0.2 mm 1 mps 746 mmHg 60%
    13:00 +23°C° 0.5 mm 1 mps 746 mmHg 61%
    14:00 +23°C° 0.5 mm 1 mps 746 mmHg 62%
    15:00 +23°C° 0.5 mm 1 mps 746 mmHg 64%
    16:00 +23°C° 0.2 mm 1 mps 746 mmHg 66%
    17:00 +22°C° 0.2 mm 1 mps 746 mmHg 69%
    18:00 +21°C° 0.2 mm 2 mps 746 mmHg 71%
    19:00 +20°C° 0.7 mm 2 mps 746 mmHg 76%
    20:00 +18°C° 0.7 mm 2 mps 747 mmHg 82%
    21:00 +17°C° 0.7 mm 2 mps 747 mmHg 87%
    22:00 +17°C° 0.2 mm 3 mps 747 mmHg 89%
    23:00 +16°C° 0.2 mm 3 mps 747 mmHg 91%

    Tomorrow, 21 May, Monday

    Time Temperature Precipitation Wind Pressure Humidity
    00:00 +15°C° 0.2 mm 4 mps 747 mmHg 93%
    01:00 +15°C° 0.2 mm 4 mps 747 mmHg 93%
    02:00 +14°C° 0.2 mm 4 mps 747 mmHg 94%
    03:00 +14°C° 0.2 mm 5 mps 748 mmHg 95%
    04:00 +14°C° 0.4 mm 5 mps 748 mmHg 95%
    05:00 +14°C° 0.4 mm 5 mps 748 mmHg 95%
    06:00 +14°C° 0.4 mm 5 mps 748 mmHg 95%
    07:00 +14°C° 0.6 mm 5 mps 748 mmHg 94%
    08:00 +15°C° 0.6 mm 5 mps 749 mmHg 93%
    09:00 +15°C° 0.6 mm 5 mps 749 mmHg 92%
    10:00 +16°C° 0.5 mm 6 mps 749 mmHg 90%
    11:00 +17°C° 0.5 mm 6 mps 749 mmHg 88%
    12:00 +19°C° 0.5 mm 6 mps 750 mmHg 86%
    13:00 +19°C° 0.7 mm 6 mps 750 mmHg 86%
    14:00 +17°C° 0.7 mm 6 mps 750 mmHg 87%
    15:00 +17°C° 0.7 mm 7 mps 750 mmHg 87%
    16:00 +17°C° 0.2 mm 6 mps 750 mmHg 88%
    17:00 +17°C° 0.2 mm 6 mps 750 mmHg 89%
    18:00 +17°C° 0.2 mm 6 mps 750 mmHg 89%
    19:00 +17°C° 0.1 mm 6 mps 750 mmHg 91%
    20:00 +16°C° 0.1 mm 6 mps 751 mmHg 92%
    21:00 +16°C° 0.1 mm 6 mps 751 mmHg 93%
    22:00 +15°C° 0.2 mm 6 mps 751 mmHg 93%
    23:00 +15°C° 0.2 mm 6 mps 751 mmHg 93%

    Day after tomorrow, 22 May, Tuesday

    Time Temperature Precipitation Wind Pressure Humidity
    00:00 +15°C° 0.2 mm 6 mps 752 mmHg 94%
    01:00 +14°C° 0.4 mm 6 mps 752 mmHg 94%
    02:00 +14°C° 0.4 mm 6 mps 752 mmHg 94%
    03:00 +13°C° 0.4 mm 6 mps 752 mmHg 94%
    04:00 +13°C° 0.2 mm 5 mps 752 mmHg 93%
    05:00 +13°C° 0.2 mm 5 mps 753 mmHg 92%
    06:00 +14°C° 0.2 mm 5 mps 753 mmHg 91%
    07:00 +15°C° 0.1 mm 5 mps 753 mmHg 87%
    08:00 +16°C° 0.1 mm 6 mps 753 mmHg 84%
    09:00 +19°C° 0.1 mm 6 mps 754 mmHg 80%
    10:00 +20°C° 0 mm 6 mps 754 mmHg 78%
    11:00 +21°C° 0 mm 6 mps 754 mmHg 75%
    12:00 +23°C° 0 mm 6 mps 754 mmHg 72%
    13:00 +23°C° 0 mm 6 mps 754 mmHg 71%
    14:00 +24°C° 0 mm 6 mps 754 mmHg 70%
    15:00 +26°C° 0 mm 6 mps 754 mmHg 69%
    16:00 +24°C° 0 mm 6 mps 754 mmHg 72%
    17:00 +23°C° 0 mm 5 mps 754 mmHg 74%
    18:00 +22°C° 0 mm 5 mps 754 mmHg 77%
    19:00 +21°C° 0 mm 5 mps 754 mmHg 78%
    20:00 +20°C° 0 mm 4 mps 754 mmHg 79%
    21:00 +19°C° 0 mm 4 mps 754 mmHg 80%
    22:00 +18°C° 0.1 mm 4 mps 754 mmHg 79%
    23:00 +18°C° 0.1 mm 4 mps 754 mmHg 77%

    23 May, Wednesday

    Time Temperature Precipitation Wind Pressure Humidity
    00:00 +17°C° 0.1 mm 4 mps 754 mmHg 76%
    01:00 +17°C° 0 mm 4 mps 754 mmHg 76%
    02:00 +15°C° 0 mm 4 mps 754 mmHg 76%
    03:00 +16°C° 0 mm 3 mps 754 mmHg 75%
    04:00 +16°C° 0 mm 3 mps 754 mmHg 76%
    05:00 +16°C° 0 mm 3 mps 754 mmHg 77%
    06:00 +16°C° 0 mm 3 mps 754 mmHg 78%
    07:00 +17°C° 0 mm 3 mps 754 mmHg 75%
    08:00 +18°C° 0 mm 4 mps 754 mmHg 72%
    09:00 +19°C° 0 mm 4 mps 754 mmHg 69%
    10:00 +21°C° 0 mm 4 mps 754 mmHg 66%
    11:00 +23°C° 0 mm 4 mps 754 mmHg 63%
    12:00 +25°C° 0 mm 4 mps 754 mmHg 60%
    13:00 +26°C° 0 mm 4 mps 754 mmHg 60%
    14:00 +26°C° 0 mm 5 mps 753 mmHg 60%
    15:00 +26°C° 0 mm 5 mps 753 mmHg 60%
    16:00 +26°C° 0 mm 4 mps 753 mmHg 64%
    17:00 +25°C° 0 mm 3 mps 752 mmHg 68%
    18:00 +25°C° 0 mm 3 mps 752 mmHg 73%
    19:00 +22°C° 0 mm 3 mps 752 mmHg 76%
    20:00 +21°C° 0 mm 3 mps 752 mmHg 79%
    21:00 +19°C° 0 mm 3 mps 752 mmHg 82%
    22:00 +19°C° 0 mm 3 mps 752 mmHg 80%
    23:00 +18°C° 0 mm 3 mps 751 mmHg 78%

    24 May, Thursday

    Time Temperature Precipitation Wind Pressure Humidity
    00:00 +18°C° 0 mm 3 mps 751 mmHg 76%
    01:00 +17°C° 0 mm 2 mps 751 mmHg 74%
    02:00 +17°C° 0 mm 2 mps 751 mmHg 73%
    03:00 +17°C° 0 mm 2 mps 751 mmHg 71%
    04:00 +17°C° 0 mm 2 mps 751 mmHg 72%
    05:00 +17°C° 0 mm 2 mps 750 mmHg 74%
    06:00 +17°C° 0 mm 2 mps 750 mmHg 75%
    07:00 +19°C° 0 mm 2 mps 750 mmHg 71%
    08:00 +20°C° 0 mm 2 mps 750 mmHg 68%
    09:00 +23°C° 0 mm 2 mps 750 mmHg 64%
    10:00 +24°C° 0 mm 2 mps 750 mmHg 59%
    11:00 +25°C° 0 mm 2 mps 749 mmHg 54%
    12:00 +26°C° 0 mm 2 mps 749 mmHg 49%
    13:00 +26°C° 0 mm 2 mps 749 mmHg 48%
    14:00 +27°C° 0 mm 2 mps 748 mmHg 48%
    15:00 +27°C° 0 mm 2 mps 748 mmHg 48%
    16:00 +27°C° 0 mm 2 mps 748 mmHg 52%
    17:00 +27°C° 0 mm 2 mps 747 mmHg 57%
    18:00 +27°C° 0 mm 2 mps 747 mmHg 61%
    19:00 +25°C° 0 mm 2 mps 747 mmHg 65%
    20:00 +23°C° 0 mm 2 mps 747 mmHg 69%
    21:00 +20°C° 0 mm 2 mps 747 mmHg 72%
    22:00 +19°C° 0 mm 2 mps 747 mmHg 75%
    23:00 +18°C° 0 mm 2 mps 746 mmHg 77%

    25 May, Friday

    Time Temperature Precipitation Wind Pressure Humidity
    00:00 +18°C° 0 mm 2 mps 746 mmHg 79%
    01:00 +17°C° 0 mm 2 mps 746 mmHg 81%
    02:00 +17°C° 0 mm 2 mps 746 mmHg 82%
    03:00 +16°C° 0 mm 2 mps 746 mmHg 84%
    04:00 +17°C° 0 mm 2 mps 746 mmHg 84%
    05:00 +17°C° 0 mm 2 mps 746 mmHg 84%
    06:00 +18°C° 0 mm 2 mps 746 mmHg 84%
    07:00 +20°C° 0 mm 3 mps 746 mmHg 79%
    08:00 +21°C° 0 mm 3 mps 746 mmHg 75%
    09:00 +24°C° 0 mm 3 mps 746 mmHg 70%
    10:00 +26°C° 0 mm 4 mps 746 mmHg 66%
    11:00 +27°C° 0 mm 4 mps 746 mmHg 62%
    12:00 +28°C° 0 mm 5 mps 746 mmHg 58%
    13:00 +28°C° 0.1 mm 5 mps 747 mmHg 58%
    14:00 +28°C° 0.1 mm 5 mps 747 mmHg 58%
    15:00 +28°C° 0.1 mm 5 mps 747 mmHg 58%
    16:00 +27°C° 0.1 mm 6 mps 747 mmHg 63%
    17:00 +26°C° 0.1 mm 6 mps 748 mmHg 69%
    18:00 +24°C° 0.1 mm 6 mps 748 mmHg 74%
    19:00 +22°C° 0 mm 7 mps 749 mmHg 77%
    20:00 +20°C° 0 mm 7 mps 749 mmHg 79%
    21:00 +16°C° 0 mm 7 mps 750 mmHg 81%
    22:00 +15°C° 0 mm 8 mps 750 mmHg 80%
    23:00 +13°C° 0 mm 8 mps 751 mmHg 79%
    Show more